2021-033A (48248 NORAD) Tracking and Keplerian Element Data

This shows tracking and keplerian element data for the satellite.

Feedback or suggestion? Click here.




ElementValue
Catalog48248
Name2021-033A
Epoch Orbit301
Epoch Day136.93766513
Epoch Year2021
RAAN212.4368
Inclination97.3963
Eccentricity0.0011527
Argument of Perigee188.6943
Mean Anonmoly257.0153
Mean Motion15.20841221
Decay Rate1.428E-05
L11 48248U 21033A 21136.93766513 .00001428 00000-0 67742-4 0 9993
L22 48248 97.3963 212.4368 0011527 188.6943 257.0153 15.20841221 3019

Live tracking and technical data element details for 2021-033A (NORAD 48248). 2021-033A can be tracked NOW for your location showing map with azimuth and elevation plus other details from your city location.

Track the satellite on the map from your city or location and see movement details for azimuth, elevation, latitude, longitude, range, height, and movement on the map or in text.







IsCatalogInMostPopularTable: catalog: 48248, numindb: 3
Update: records affected: 1



GetName: 48248 2021-033A

Hit Count: updated at: Mon, 17 May 2021 15:48:23 GMT